< < Back
Terminal Aerodrome Forecast


Current Version              Previous Versions:   1  2  3  4  5  6  7  8  9  

Terminal Aerodrome Forecast

229
FTUS42 KCHS 262300
TAFSAV
TAF
KSAV 262320Z 2700/2724 29015G21KT P6SM BKN040
     FM270500 29012G17KT P6SM SCT080
     FM271400 30015G23KT P6SM SCT025 SCT060
     FM272230 30010KT P6SM SCT060=



Latest METAR

021
SAUS80 KWBC 271600 RRA
MTRSAV
METAR KSAV 271553Z 33013KT 10SM BKN075 09/M01 A2991 RMK AO2 SLP127
T00941006


USA.gov is the U.S. government's official web portal to all federal, state and local government web resources and services.